Volver al catálogo

YAOGAN-36 04B

ActivoMilitarVLEO
NORAD 54748·PAYLOAD·🇨🇳 China

Lanzado Dec 14, 2022 desde Xichang Satellite Launch Center

Loading…

Próximos Pases (próximas 24 horas)

TLE

ActualizadoSource: Space-Track

Época: Sep 14, 2026, 16:46 UTC

1 54748U 22171C   26257.69872867  .00008437  00000-0  35116-3 0  9997
2 54748  35.0031 352.0458 0006814 289.1484  70.8493 15.23002376209049

Sigue YAOGAN-36 04B en tiempo real con AllMySat

Download on the App Store